Location: Jihlava
(49.4000°N, 15.5830°E)
Time: 05:37:36
(UTC+02:00)

ISS - Visible Passes

Search period start: 23 September 2017 00:00
Search period end: 03 October 2017 00:00
Orbit: 401 x 407 km, 51.6° (Epoch: 23 September)

Date Brightness Start Highest point End Pass type
(mag) Time Alt. Az. Time Alt. Az. Time Alt. Az.
26 Sep -2.5 20:27:43 10° SSW 20:29:49 26° S 20:29:49 26° S visible
27 Sep -2.2 19:36:00 10° S 19:38:26 19° SE 19:39:57 15° ESE visible
27 Sep -1.7 21:11:17 10° WSW 21:12:38 23° WSW 21:12:38 23° WSW visible
28 Sep -3.7 20:18:59 10° SW 20:22:12 55° SSE 20:22:37 50° ESE visible
29 Sep -3.0 19:26:52 10° SW 19:29:54 35° SSE 19:32:28 13° E visible
29 Sep -2.4 21:02:59 10° W 21:05:07 37° W 21:05:07 37° W visible
30 Sep -3.9 20:10:31 10° WSW 20:13:48 89° W 20:14:51 40° ENE visible
30 Sep -0.5 21:47:12 10° WNW 21:47:30 12° WNW 21:47:30 12° WNW visible
01 Oct -3.7 19:18:09 10° WSW 19:21:24 64° SSE 19:24:31 11° ENE visible
01 Oct -2.6 20:54:42 10° W 20:57:10 42° WNW 20:57:10 42° WNW visible
02 Oct -3.6 20:02:11 10° W 20:05:26 65° N 20:06:45 32° ENE visible
02 Oct -0.6 21:38:52 10° WNW 21:39:24 14° WNW 21:39:24 14° WNW visible
